Regional Weather Roundup
Issued by NWS Sterling, VA

Home | Current Version | Previous Version | Graphics & Text | Print | Product List | Glossary On
Versions: 1 2 3 4 5 6 7 8 9 10 11 12 13 14 15 16 17 18 19 20 21 22 23 24 25 26 27 28 29 30 31 32 33 34 35 36 37 38 39 40 41 42 43 44 45 46 47 48 49 50
401
ASUS41 KLWX 232111
RWRLWX

REGIONAL WEATHER ROUNDUP
NATIONAL WEATHER SERVICE BALTIMORE MD/WASHINGTON DC
500 PM EDT SUN JUL 23 2017

Note: "FAIR" indicates few or no clouds below 12,000 feet
with no significant weather and/or obstructions to visibility.
 TC=TEMPERATURE CELSIUS

 * =Non NWS site. Station does not report precipitation (e.g. rain,
    snow, etc.), thunder, or fog.

DCZ001-MDZ009-015-VAZ040>042-051-053>054-232200-
WASHINGTON METRO

CITY           SKY/WX    TMP DP  RH WIND       PRES   REMARKS
WASHINGTON NAT CLOUDY    82  77  84 S6        29.77F HX  90
DULLES         PTSUNNY   82  73  74 SW8       29.77F
ANDREWS AFB    CLOUDY    82  74  77 SW6       29.77F
FT BELVOIR     MOSUNNY   85  74  70 S6        29.77F HX  93
QUANTICO       LGT RAIN  85  79  82 S8        29.77F HX  98
COLLEGE PARK*  CLOUDY    77  75  94 NE3       29.77S
LEESBURG*      CLOUDY    79  77  94 NE7G17    29.80S
MANASSAS*      CLOUDY    87  75  67 VRB7      29.77F HX  96
GAITHERSBURG*  TSTM      73  71  93 NW9       29.83R FOG

$$

MDZ006>007-011-014-232200-
BALTIMORE METRO

CITY           SKY/WX    TMP DP  RH WIND       PRES   REMARKS
BWI AIRPORT    PTSUNNY   80  76  87 SW8       29.76S
MD SCIENCE CTR   N/A     87  72  60 MISG      29.75F HX  93
MARTIN STATE   PTSUNNY   86  81  84 S9        29.75F HX 102
ANNAPOLIS      MOSUNNY   81  76  84 W6        29.75F
FORT MEADE*    CLOUDY    75  72  88 SW12      29.80S VSB 3/4

$$

MDZ012-015-019>023-232200-
MARYLAND EASTERN SHORE

CITY           SKY/WX    TMP DP  RH WIND       PRES   REMARKS
OCEAN CITY     TSTM      79  75  87 W12G24    29.81R VSB 1
SALISBURY      PTSUNNY   75  75 100 SE7       29.79F
BAY BRIDGE AP* PTSUNNY   81  73  78 SW10G24   29.76F
CAMBRIDGE*     SUNNY     79  73  83 CALM      29.77F
EASTON*        MOSUNNY   77  73  88 SW8       29.80F

$$

MDZ017>025-232200-
SOUTHERN MARYLAND

CITY           SKY/WX    TMP DP  RH WIND       PRES   REMARKS
PATUXENT RIVER CLOUDY    84  75  74 VRB3      29.78F HX  92
ST INIGOES     PTSUNNY   86  79  79 VRB3      29.78S HX  99
LEONARDTOWN*   MOSUNNY   84  72  65 CALM      29.79F

$$

MDZ003>005-232200-
NORTH CENTRAL MARYLAND

CITY           SKY/WX    TMP DP  RH WIND       PRES   REMARKS
FREDERICK*     CLOUDY    81  72  74 SW9       29.79S THUNDER
HAGERSTOWN APT HVY RAIN  74  70  87 W17G37    29.78R VSB 3/4
WESTMINSTER*   MOSUNNY   88  72  58 SW9       29.77S HX  94

$$

MDZ501>502-232200-
WESTERN MARYLAND

CITY           SKY/WX    TMP DP  RH WIND       PRES   REMARKS
OAKLAND*       CLOUDY    70  66  88 SW10      29.88F
CUMBERLAND*    MOSUNNY   81  70  69 CALM      29.83F

$$

VAZ025>031-232200-
SHENANDOAH VALLEY

CITY           SKY/WX    TMP DP  RH WIND       PRES   REMARKS
WINCHESTER*    CLOUDY    82  70  65 NW12        N/A
FRONT ROYAL*   CLOUDY    82  73  74 CALM      29.79F
LURAY*         CLOUDY    86  70  58 SW6       29.82S HX  90
NEW MARKET*    CLOUDY    86  70  57 S3        29.80F HX  91
STAUNTON*      SUNNY     87  64  46 W5        29.86F
WAYNESBORO*    PTSUNNY   85  68  55 SW3       29.86F

$$

WVZ021-048>050-054>055-232200-
EASTERN WEST VIRGINIA PANHANDLE

CITY           SKY/WX    TMP DP  RH WIND       PRES   REMARKS
MARTINSBURG    CLOUDY    81  71  71 NW14G20   29.77F
PETERSBURG*    MOSUNNY   85  69  58 W10G18    29.82F

$$

VAZ036>039-050-232200-
CENTRAL FOOTHILLS

CITY           SKY/WX    TMP DP  RH WIND       PRES   REMARKS
CHARLOTTESVILL PTSUNNY   93  66  40 NW3       29.80F HX  96
CULPEPER*      PTSUNNY   88  73  61 SW7       29.79S HX  95
ORANGE*        SUNNY     90  68  48 W9        29.80F HX  93
GORDONSVILLE*  SUNNY     91  68  46 NW6       29.79F HX  95
WARRENTON*     SUNNY     89  69  50 SW7       29.78S HX  93

$$

VAZ055>057-232200-
NORTH AND CENTRAL PIEDMONT

CITY           SKY/WX    TMP DP  RH WIND       PRES   REMARKS
FREDERICKSBRG* MOSUNNY   89  77  67 MISG      29.77F HX 100
STAFFORD*      SUNNY     88  76  68 SW6       29.81F HX  99

$$

NCZ024-NYZ072-PAZ021-071-VAZ022-071-232200-
OTHER REGIONAL OBSERVATIONS

CITY           SKY/WX    TMP DP  RH WIND       PRES   REMARKS
NEW YORK CITY  CLOUDY    76  69  79 VRB5      29.85R
PHILADELPHIA   CLOUDY    85  70  60 E8        29.78S
PITTSBURGH     CLOUDY    76  71  85 SW9       29.78F
ROANOKE        CLOUDY    94  62  34 NW10G16   29.86F HX  94
RICHMOND       PTSUNNY   96  62  32 SW14      29.78S HX  97
RALEIGH        CLOUDY    99  66  33 VRB6      29.80F HX 103

$$

ANZ530>537-232200-
MARINE OBSERVATIONS

STATION/POSITION TIME  TEMP    WIND        PRES
                       AIR SEA DIR/SP/G
                 (UTC) (F)     (DEG/KT/KT) (MB)
THOMAS PT LIGHT  2100   78 83  230/  9/ 10   N/A
BALT KEY BRIDGE  2048   82     200/ 10/ 12 1007.0F
COVE POINT       2048   78      90/  3/  4 1009.0F
LEWISETTA        2048   85 85  360/  4/  5 1008.6R
SOLOMONS ISLAND  2048   82 85  180/  2/  4   N/A
PINEY POINT      2042          350/  8/  9   N/A

$$





USA.gov is the U.S. government's official web portal to all federal, state and local government web resources and services.